| time (UTC) | temp C | wind direction | speed KPH | gust KPH | rain 1hr cm | rain 24hr cm | rain mn cm | humidity % | barometer mb |
| 20260902212308 | 33 | 254 | 12.9 | 0.0 | 0.00 | 0.00 | 0.00 | 67 | 1013.4 |
| 20260902211807 | 33 | 248 | 8.0 | 0.0 | 0.00 | 0.00 | 0.00 | 69 | 1013.5 |
| 20260902210807 | 33 | 268 | 11.3 | 0.0 | 0.00 | 0.00 | 0.00 | 66 | 1013.5 |
| 20260902210307 | 33 | 238 | 8.0 | 0.0 | 0.00 | 0.00 | 0.00 | 64 | 1013.6 |
| 20260902205306 | 33 | 253 | 8.0 | 0.0 | 0.00 | 0.00 | 0.00 | 65 | 1013.7 |
| 20260902204806 | 33 | 255 | 14.5 | 0.0 | 0.00 | 0.00 | 0.00 | 64 | 1013.7 |
| 20260902204305 | 33 | 225 | 9.7 | 0.0 | 0.00 | 0.00 | 0.00 | 65 | 1013.7 |
| 20260902203805 | 33 | 261 | 12.9 | 0.0 | 0.00 | 0.00 | 0.00 | 66 | 1013.6 |
| 20260902203305 | 33 | 231 | 11.3 | 0.0 | 0.00 | 0.00 | 0.00 | 66 | 1013.6 |
| 20260902202804 | 33 | 272 | 12.9 | 0.0 | 0.00 | 0.00 | 0.00 | 66 | 1013.6 |
| 20260902202306 | 33 | 264 | 14.5 | 0.0 | 0.00 | 0.00 | 0.00 | 65 | 1013.7 |
| 20260902201804 | 33 | 268 | 11.3 | 0.0 | 0.00 | 0.00 | 0.00 | 65 | 1013.7 |
| 20260902201303 | 33 | 252 | 12.9 | 0.0 | 0.00 | 0.00 | 0.00 | 66 | 1013.7 |
| 20260902200803 | 33 | 242 | 12.9 | 0.0 | 0.00 | 0.00 | 0.00 | 68 | 1013.7 |
| 20260902200303 | 33 | 260 | 17.7 | 0.0 | 0.00 | 0.00 | 0.00 | 68 | 1013.7 |
| 20260902195803 | 33 | 250 | 14.5 | 0.0 | 0.00 | 0.00 | 0.00 | 67 | 1013.8 |
| 20260902195306 | 33 | 259 | 9.7 | 0.0 | 0.00 | 0.00 | 0.00 | 69 | 1013.8 |
| 20260902194802 | 33 | 259 | 9.7 | 0.0 | 0.00 | 0.00 | 0.00 | 68 | 1013.9 |
| 20260902194302 | 33 | 248 | 14.5 | 0.0 | 0.00 | 0.00 | 0.00 | 69 | 1013.9 |
| 20260902193801 | 33 | 234 | 8.0 | 0.0 | 0.00 | 0.00 | 0.00 | 68 | 1014.0 |
| 20260902193301 | 33 | 242 | 4.8 | 0.0 | 0.00 | 0.00 | 0.00 | 69 | 1014.0 |
| 20260902192801 | 33 | 256 | 11.3 | 0.0 | 0.00 | 0.00 | 0.00 | 68 | 1014.1 |
| 20260902192301 | 33 | 230 | 11.3 | 0.0 | 0.00 | 0.00 | 0.00 | 69 | 1014.1 |
| 20260902191800 | 33 | 229 | 6.4 | 0.0 | 0.00 | 0.00 | 0.00 | 69 | 1014.2 |
| 20260902191300 | 33 | 233 | 11.3 | 0.0 | 0.00 | 0.00 | 0.00 | 70 | 1014.3 |
| 20260902190800 | 33 | 227 | 9.7 | 0.0 | 0.00 | 0.00 | 0.00 | 70 | 1014.3 |
| 20260902190300 | 33 | 256 | 4.8 | 0.0 | 0.00 | 0.00 | 0.00 | 69 | 1014.3 |
| 20260902185759 | 33 | 248 | 12.9 | 0.0 | 0.00 | 0.00 | 0.00 | 69 | 1014.4 |
| 20260902185259 | 33 | 275 | 9.7 | 0.0 | 0.00 | 0.00 | 0.00 | 72 | 1014.5 |
| 20260902184759 | 33 | 246 | 11.3 | 0.0 | 0.00 | 0.00 | 0.00 | 71 | 1014.6 |
| 20260902184258 | 32 | 240 | 6.4 | 0.0 | 0.00 | 0.00 | 0.00 | 71 | 1014.6 |
| 20260902183758 | 32 | 256 | 8.0 | 0.0 | 0.00 | 0.00 | 0.00 | 73 | 1014.6 |
| 20260902183258 | 32 | 245 | 12.9 | 0.0 | 0.00 | 0.00 | 0.00 | 70 | 1014.6 |
| 20260902182758 | 32 | 253 | 14.5 | 0.0 | 0.00 | 0.00 | 0.00 | 69 | 1014.6 |
| 20260902182257 | 32 | 297 | 14.5 | 0.0 | 0.00 | 0.00 | 0.00 | 72 | 1014.5 |
| 20260902181757 | 32 | 265 | 12.9 | 0.0 | 0.00 | 0.00 | 0.00 | 71 | 1014.6 |
| 20260902181257 | 32 | 284 | 9.7 | 0.0 | 0.00 | 0.00 | 0.00 | 71 | 1014.7 |
| 20260902180756 | 32 | 262 | 16.1 | 0.0 | 0.00 | 0.00 | 0.00 | 71 | 1014.7 |
| 20260902180256 | 32 | 244 | 11.3 | 0.0 | 0.00 | 0.00 | 0.00 | 71 | 1014.8 |
| 20260902175756 | 32 | 258 | 14.5 | 0.0 | 0.00 | 0.00 | 0.00 | 71 | 1014.8 |
| 20260902175256 | 32 | 272 | 11.3 | 0.0 | 0.00 | 0.00 | 0.00 | 73 | 1014.8 |
| 20260902174755 | 31 | 277 | 12.9 | 0.0 | 0.00 | 0.00 | 0.00 | 73 | 1014.9 |
| 20260902174255 | 31 | 254 | 17.7 | 0.0 | 0.00 | 0.00 | 0.00 | 74 | 1014.9 |
| 20260902173755 | 31 | 241 | 19.3 | 0.0 | 0.00 | 0.00 | 0.00 | 72 | 1014.9 |
| 20260902173255 | 31 | 275 | 17.7 | 0.0 | 0.00 | 0.00 | 0.00 | 73 | 1015.0 |
| 20260902172754 | 31 | 278 | 14.5 | 0.0 | 0.00 | 0.00 | 0.00 | 73 | 1014.9 |
| 20260902172254 | 31 | 254 | 6.4 | 0.0 | 0.00 | 0.00 | 0.00 | 74 | 1015.0 |
| 20260902171754 | 31 | 269 | 9.7 | 0.0 | 0.00 | 0.00 | 0.00 | 74 | 1015.1 |
| 20260902171253 | 31 | 278 | 14.5 | 0.0 | 0.00 | 0.00 | 0.00 | 74 | 1015.1 |
| 20260902170753 | 31 | 263 | 12.9 | 0.0 | 0.00 | 0.00 | 0.00 | 74 | 1015.2 |
| 20260902170253 | 31 | 269 | 12.9 | 0.0 | 0.00 | 0.00 | 0.00 | 76 | 1015.2 |
| 20260902165752 | 31 | 259 | 9.7 | 0.0 | 0.00 | 0.00 | 0.00 | 75 | 1015.2 |
| 20260902165252 | 30 | 259 | 14.5 | 0.0 | 0.00 | 0.00 | 0.00 | 76 | 1015.3 |
| 20260902164752 | 30 | 275 | 12.9 | 0.0 | 0.00 | 0.00 | 0.00 | 74 | 1015.4 |
| 20260902164252 | 30 | 261 | 14.5 | 0.0 | 0.00 | 0.00 | 0.00 | 75 | 1015.4 |
| 20260902162751 | 30 | 296 | 16.1 | 0.0 | 0.00 | 0.00 | 0.00 | 77 | 1015.4 |
| 20260902162251 | 30 | 274 | 14.5 | 0.0 | 0.00 | 0.00 | 0.00 | 78 | 1015.2 |
| 20260902161750 | 30 | 288 | 11.3 | 0.0 | 0.00 | 0.00 | 0.00 | 80 | 1015.4 |
| 20260902161250 | 29 | 283 | 12.9 | 0.0 | 0.00 | 0.00 | 0.00 | 78 | 1015.3 |
| 20260902160749 | 29 | 272 | 16.1 | 0.0 | 0.00 | 0.00 | 0.00 | 79 | 1015.5 |
| 20260902160249 | 29 | 261 | 16.1 | 0.0 | 0.00 | 0.00 | 0.00 | 80 | 1015.3 |
| 20260902160040 | 29 | 253 | 6.4 | 0.0 | 0.00 | 0.00 | 0.00 | 79 | 1015.3 |
| 20260902155749 | 29 | 253 | 6.4 | 0.0 | 0.00 | 0.00 | 0.00 | 79 | 1015.3 |
| 20260902154917 | 29 | 244 | 16.1 | 0.0 | 0.00 | 0.00 | 0.00 | 80 | 1015.2 |
| 20260902154748 | 29 | 244 | 16.1 | 0.0 | 0.00 | 0.00 | 0.00 | 80 | 1015.2 |
| 20260902153951 | 28 | 267 | 12.9 | 0.0 | 0.00 | 0.00 | 0.00 | 80 | 1015.2 |
| 20260902153747 | 28 | 267 | 12.9 | 0.0 | 0.00 | 0.00 | 0.00 | 80 | 1015.2 |
| 20260902153515 | 28 | 260 | 17.7 | 0.0 | 0.00 | 0.00 | 0.00 | 81 | 1015.2 |
| 20260902153337 | 28 | 260 | 17.7 | 0.0 | 0.00 | 0.00 | 0.00 | 81 | 1015.2 |
| 20260902153247 | 28 | 260 | 17.7 | 0.0 | 0.00 | 0.00 | 0.00 | 81 | 1015.2 |
| 20260902152927 | 28 | 254 | 14.5 | 0.0 | 0.00 | 0.00 | 0.00 | 80 | 1015.2 |
| 20260902152746 | 28 | 254 | 14.5 | 0.0 | 0.00 | 0.00 | 0.00 | 80 | 1015.2 |
| 20260902152246 | 28 | 245 | 20.9 | 0.0 | 0.00 | 0.00 | 0.00 | 81 | 1015.2 |
| 20260902151746 | 28 | 253 | 12.9 | 0.0 | 0.00 | 0.00 | 0.00 | 83 | 1015.2 |
| 20260902151436 | 27 | 260 | 14.5 | 0.0 | 0.00 | 0.00 | 0.00 | 82 | 1015.2 |
| 20260902151245 | 27 | 260 | 14.5 | 0.0 | 0.00 | 0.00 | 0.00 | 82 | 1015.2 |
| 20260902150745 | 27 | 238 | 17.7 | 0.0 | 0.00 | 0.00 | 0.00 | 81 | 1015.1 |
| 20260902150438 | 27 | 256 | 20.9 | 0.0 | 0.00 | 0.00 | 0.00 | 82 | 1015.1 |
| 20260902150245 | 27 | 248 | 12.9 | 0.0 | 0.00 | 0.00 | 0.00 | 81 | 1015.1 |
| 20260902150000 | 27 | 256 | 20.9 | 0.0 | 0.00 | 0.00 | 0.00 | 82 | 1015.1 |
| 20260902145745 | 27 | 256 | 20.9 | 0.0 | 0.00 | 0.00 | 0.00 | 82 | 1015.1 |
| 20260902145458 | 27 | 258 | 16.1 | 0.0 | 0.00 | 0.00 | 0.00 | 84 | 1015.0 |
| 20260902145447 | 27 | 245 | 17.7 | 0.0 | 0.00 | 0.00 | 0.00 | 84 | 1015.0 |
| 20260902145244 | 27 | 245 | 17.7 | 0.0 | 0.00 | 0.00 | 0.00 | 84 | 1015.0 |
| 20260902144428 | 27 | 258 | 16.1 | 0.0 | 0.00 | 0.00 | 0.00 | 84 | 1015.0 |
| 20260902144245 | 27 | 258 | 16.1 | 0.0 | 0.00 | 0.00 | 0.00 | 84 | 1015.0 |
| 20260902143746 | 27 | 259 | 17.7 | 0.0 | 0.00 | 0.00 | 0.00 | 83 | 1015.0 |
| 20260902143434 | 27 | 215 | 12.9 | 0.0 | 0.00 | 0.00 | 0.00 | 85 | 1015.0 |
| 20260902143243 | 27 | 215 | 12.9 | 0.0 | 0.00 | 0.00 | 0.00 | 85 | 1015.0 |
| 20260902142941 | 27 | 273 | 11.3 | 0.0 | 0.00 | 0.00 | 0.00 | 86 | 1015.0 |
| 20260902142744 | 27 | 273 | 11.3 | 0.0 | 0.00 | 0.00 | 0.00 | 86 | 1015.0 |
| 20260902142243 | 26 | 248 | 14.5 | 0.0 | 0.00 | 0.00 | 0.00 | 86 | 1015.0 |
| 20260902141742 | 26 | 240 | 9.7 | 0.0 | 0.00 | 0.00 | 0.00 | 85 | 1015.0 |
| 20260902141441 | 26 | 259 | 12.9 | 0.0 | 0.00 | 0.00 | 0.00 | 85 | 1015.1 |
| 20260902141243 | 26 | 259 | 12.9 | 0.0 | 0.00 | 0.00 | 0.00 | 85 | 1015.1 |
| 20260902140743 | 26 | 233 | 11.3 | 0.0 | 0.00 | 0.00 | 0.00 | 86 | 1015.0 |
| 20260902134240 | 26 | 266 | 11.3 | 0.0 | 0.00 | 0.00 | 0.00 | 87 | 1015.2 |
| 20260902134011 | 26 | 240 | 8.0 | 0.0 | 0.00 | 0.00 | 0.00 | 87 | 1015.2 |
| 20260902133740 | 26 | 240 | 8.0 | 0.0 | 0.00 | 0.00 | 0.00 | 87 | 1015.2 |
| 20260902132742 | 25 | 248 | 6.4 | 0.0 | 0.00 | 0.00 | 0.00 | 88 | 1015.3 |
| 20260902131239 | 25 | 247 | 14.5 | 0.0 | 0.00 | 0.00 | 0.00 | 90 | 1015.3 |
| 20260902130738 | 24 | 242 | 14.5 | 0.0 | 0.00 | 0.00 | 0.00 | 91 | 1015.3 |
| 20260902130239 | 24 | 219 | 11.3 | 0.0 | 0.00 | 0.00 | 0.00 | 92 | 1015.3 |
| 20260902130133 | 23 | 234 | 6.4 | 0.0 | 0.00 | 0.00 | 0.00 | 93 | 1015.3 |
| 20260902125739 | 23 | 234 | 6.4 | 0.0 | 0.00 | 0.00 | 0.00 | 93 | 1015.3 |
| 20260902125237 | 23 | 223 | 6.4 | 0.0 | 0.00 | 0.00 | 0.00 | 93 | 1015.3 |
| 20260902121236 | 21 | 215 | 4.8 | 0.0 | 0.00 | 0.00 | 0.00 | 94 | 1015.2 |
| 20260902121126 | 21 | 229 | 3.2 | 0.0 | 0.00 | 0.00 | 0.00 | 94 | 1015.3 |
| 20260902120723 | 21 | 229 | 1.6 | 0.0 | 0.00 | 0.00 | 0.00 | 94 | 1015.1 |
| 20260902120529 | 21 | 229 | 3.2 | 0.0 | 0.00 | 0.00 | 0.00 | 94 | 1015.3 |
| 20260902120236 | 21 | 229 | 3.2 | 0.0 | 0.00 | 0.00 | 0.00 | 94 | 1015.3 |
| 20260902115521 | 21 | 229 | 1.6 | 0.0 | 0.00 | 0.00 | 0.00 | 94 | 1015.1 |
| 20260902115235 | 21 | 229 | 1.6 | 0.0 | 0.00 | 0.00 | 0.00 | 94 | 1015.1 |
| 20260902114526 | 21 | 226 | 3.2 | 0.0 | 0.00 | 0.00 | 0.00 | 94 | 1015.1 |
| 20260902114351 | 21 | 226 | 3.2 | 0.0 | 0.00 | 0.00 | 0.00 | 94 | 1015.1 |
| 20260902114234 | 21 | 226 | 3.2 | 0.0 | 0.00 | 0.00 | 0.00 | 94 | 1015.1 |
| 20260902114048 | 21 | 226 | 4.8 | 0.0 | 0.00 | 0.00 | 0.00 | 94 | 1015.1 |
| 20260902113733 | 21 | 226 | 4.8 | 0.0 | 0.00 | 0.00 | 0.00 | 94 | 1015.1 |
| 20260902113040 | 21 | 241 | 4.8 | 0.0 | 0.00 | 0.00 | 0.00 | 93 | 1015.0 |
| 20260902113007 | 21 | 241 | 4.8 | 0.0 | 0.00 | 0.00 | 0.00 | 93 | 1015.0 |
| 20260902112734 | 21 | 241 | 4.8 | 0.0 | 0.00 | 0.00 | 0.00 | 93 | 1015.0 |
| 20260902112234 | 21 | 233 | 3.2 | 0.0 | 0.00 | 0.00 | 0.00 | 93 | 1015.0 |
| 20260902112028 | 21 | 233 | 4.8 | 0.0 | 0.00 | 0.00 | 0.00 | 93 | 1015.0 |
| 20260902111732 | 21 | 233 | 4.8 | 0.0 | 0.00 | 0.00 | 0.00 | 93 | 1015.0 |
| 20260902111232 | 21 | 233 | 4.8 | 0.0 | 0.00 | 0.00 | 0.00 | 94 | 1015.0 |
| 20260902110732 | 21 | 234 | 4.8 | 0.0 | 0.00 | 0.00 | 0.00 | 94 | 1015.0 |
| 20260902110231 | 21 | 234 | 3.2 | 0.0 | 0.00 | 0.00 | 0.00 | 93 | 1015.0 |
| 20260902105731 | 21 | 233 | 3.2 | 0.0 | 0.00 | 0.00 | 0.00 | 93 | 1015.1 |
| 20260902104732 | 21 | 234 | 3.2 | 0.0 | 0.00 | 0.00 | 0.00 | 93 | 1015.0 |
| 20260902104231 | 22 | 233 | 3.2 | 0.0 | 0.00 | 0.00 | 0.00 | 92 | 1014.9 |
| 20260902103730 | 22 | 234 | 4.8 | 0.0 | 0.00 | 0.00 | 0.00 | 93 | 1014.8 |
| 20260902103230 | 22 | 234 | 1.6 | 0.0 | 0.00 | 0.00 | 0.00 | 93 | 1014.8 |
| 20260902102729 | 21 | 233 | 1.6 | 0.0 | 0.00 | 0.00 | 0.00 | 93 | 1014.7 |
| 20260902102229 | 21 | 234 | 1.6 | 0.0 | 0.00 | 0.00 | 0.00 | 93 | 1014.7 |
| 20260902102000 | 21 | 234 | 3.2 | 0.0 | 0.00 | 0.00 | 0.00 | 93 | 1014.7 |
| 20260902101729 | 21 | 234 | 3.2 | 0.0 | 0.00 | 0.00 | 0.00 | 93 | 1014.7 |
| 20260902101228 | 22 | 234 | 3.2 | 0.0 | 0.00 | 0.00 | 0.00 | 93 | 1014.8 |
| 20260902100728 | 22 | 233 | 4.8 | 0.0 | 0.00 | 0.00 | 0.00 | 93 | 1014.8 |
| 20260902100451 | 22 | 232 | 6.4 | 0.0 | 0.00 | 0.00 | 0.00 | 92 | 1014.8 |
| 20260902100228 | 22 | 232 | 6.4 | 0.0 | 0.00 | 0.00 | 0.00 | 92 | 1014.8 |
| 20260902095422 | 22 | 221 | 4.8 | 0.0 | 0.00 | 0.00 | 0.00 | 92 | 1014.9 |
| 20260902095227 | 22 | 221 | 4.8 | 0.0 | 0.00 | 0.00 | 0.00 | 92 | 1014.9 |
| 20260902094727 | 22 | 217 | 4.8 | 0.0 | 0.00 | 0.00 | 0.00 | 92 | 1014.9 |
| 20260902094701 | 22 | 217 | 3.2 | 0.0 | 0.00 | 0.00 | 0.00 | 92 | 1014.8 |
| 20260902094456 | 22 | 217 | 3.2 | 0.0 | 0.00 | 0.00 | 0.00 | 92 | 1014.8 |
| 20260902094227 | 22 | 217 | 3.2 | 0.0 | 0.00 | 0.00 | 0.00 | 92 | 1014.8 |
| 20260902093227 | 22 | 217 | 3.2 | 0.0 | 0.00 | 0.00 | 0.00 | 92 | 1014.8 |
| 20260902092727 | 22 | 217 | 3.2 | 0.0 | 0.00 | 0.00 | 0.00 | 92 | 1014.7 |
| 20260902091727 | 22 | 217 | 3.2 | 0.0 | 0.00 | 0.00 | 0.00 | 92 | 1014.8 |
| 20260902091226 | 22 | 217 | 4.8 | 0.0 | 0.00 | 0.00 | 0.00 | 92 | 1014.8 |
| 20260902090726 | 22 | 217 | 3.2 | 0.0 | 0.00 | 0.00 | 0.00 | 92 | 1014.7 |
| 20260902090226 | 22 | 217 | 1.6 | 0.0 | 0.00 | 0.00 | 0.00 | 92 | 1014.7 |
| 20260902085725 | 22 | 217 | 1.6 | 0.0 | 0.00 | 0.00 | 0.00 | 92 | 1014.7 |
| 20260902085224 | 22 | 217 | 1.6 | 0.0 | 0.00 | 0.00 | 0.00 | 92 | 1014.7 |
| 20260902084725 | 22 | 217 | 1.6 | 0.0 | 0.00 | 0.00 | 0.00 | 92 | 1014.6 |
| 20260902084225 | 22 | 217 | 3.2 | 0.0 | 0.00 | 0.00 | 0.00 | 92 | 1014.6 |
| 20260902084003 | 22 | 217 | 4.8 | 0.0 | 0.00 | 0.00 | 0.00 | 92 | 1014.6 |
| 20260902083724 | 22 | 217 | 4.8 | 0.0 | 0.00 | 0.00 | 0.00 | 92 | 1014.6 |
| 20260902083224 | 22 | 217 | 3.2 | 0.0 | 0.00 | 0.00 | 0.00 | 92 | 1014.5 |
| 20260902082930 | 22 | 217 | 1.6 | 0.0 | 0.00 | 0.00 | 0.00 | 92 | 1014.6 |
| 20260902082724 | 22 | 217 | 1.6 | 0.0 | 0.00 | 0.00 | 0.00 | 92 | 1014.6 |
| 20260902082223 | 22 | 217 | 3.2 | 0.0 | 0.00 | 0.00 | 0.00 | 92 | 1014.6 |
| 20260902081223 | 22 | 217 | 0.0 | 0.0 | 0.00 | 0.00 | 0.00 | 91 | 1014.5 |
| 20260902080721 | 22 | 217 | 3.2 | 0.0 | 0.00 | 0.00 | 0.00 | 91 | 1014.4 |
| 20260902080222 | 22 | 244 | 4.8 | 0.0 | 0.00 | 0.00 | 0.00 | 91 | 1014.4 |
| 20260902075722 | 23 | 244 | 3.2 | 0.0 | 0.00 | 0.00 | 0.00 | 91 | 1014.4 |
| 20260902075222 | 23 | 244 | 3.2 | 0.0 | 0.00 | 0.00 | 0.00 | 91 | 1014.5 |
| 20260902074721 | 23 | 244 | 1.6 | 0.0 | 0.00 | 0.00 | 0.00 | 91 | 1014.5 |
| 20260902074220 | 23 | 244 | 3.2 | 0.0 | 0.00 | 0.00 | 0.00 | 91 | 1014.6 |
| 20260902073721 | 23 | 244 | 4.8 | 0.0 | 0.00 | 0.00 | 0.00 | 91 | 1014.6 |
| 20260902072720 | 23 | 276 | 3.2 | 0.0 | 0.00 | 0.00 | 0.00 | 90 | 1014.6 |
| 20260902072220 | 23 | 277 | 4.8 | 0.0 | 0.00 | 0.00 | 0.00 | 90 | 1014.6 |
| 20260902071758 | 23 | 277 | 3.2 | 0.0 | 0.00 | 0.00 | 0.00 | 90 | 1014.6 |
| 20260902071719 | 23 | 277 | 3.2 | 0.0 | 0.00 | 0.00 | 0.00 | 90 | 1014.6 |
| 20260902071219 | 23 | 277 | 4.8 | 0.0 | 0.00 | 0.00 | 0.00 | 90 | 1014.6 |
| 20260902070719 | 23 | 276 | 4.8 | 0.0 | 0.00 | 0.00 | 0.00 | 90 | 1014.6 |
| 20260902070220 | 23 | 276 | 3.2 | 0.0 | 0.00 | 0.00 | 0.00 | 90 | 1014.6 |
| 20260902065803 | 23 | 277 | 3.2 | 0.0 | 0.00 | 0.00 | 0.00 | 90 | 1014.7 |
| 20260902065718 | 23 | 277 | 3.2 | 0.0 | 0.00 | 0.00 | 0.00 | 90 | 1014.7 |
| 20260902065218 | 23 | 277 | 3.2 | 0.0 | 0.00 | 0.00 | 0.00 | 90 | 1014.7 |
| 20260902064717 | 23 | 276 | 3.2 | 0.0 | 0.00 | 0.00 | 0.00 | 89 | 1014.8 |
| 20260902064219 | 23 | 277 | 3.2 | 0.0 | 0.00 | 0.00 | 0.00 | 90 | 1014.9 |
| 20260902063717 | 23 | 282 | 4.8 | 0.0 | 0.00 | 0.00 | 0.00 | 90 | 1014.8 |
| 20260902063217 | 23 | 215 | 1.6 | 0.0 | 0.00 | 0.00 | 0.00 | 90 | 1014.9 |
| 20260902062717 | 23 | 215 | 3.2 | 0.0 | 0.00 | 0.00 | 0.00 | 90 | 1014.9 |
| 20260902062217 | 24 | 215 | 1.6 | 0.0 | 0.00 | 0.00 | 0.00 | 90 | 1014.9 |
| 20260902061215 | 24 | 215 | 3.2 | 0.0 | 0.00 | 0.00 | 0.00 | 89 | 1014.8 |
| 20260902060715 | 24 | 215 | 3.2 | 0.0 | 0.00 | 0.00 | 0.00 | 89 | 1014.9 |
| 20260902060214 | 24 | 223 | 3.2 | 0.0 | 0.00 | 0.00 | 0.00 | 89 | 1014.8 |
| 20260902055714 | 24 | 224 | 3.2 | 0.0 | 0.00 | 0.00 | 0.00 | 89 | 1014.8 |
| 20260902055215 | 24 | 236 | 3.2 | 0.0 | 0.00 | 0.00 | 0.00 | 89 | 1014.7 |
| 20260902054713 | 24 | 236 | 4.8 | 0.0 | 0.00 | 0.00 | 0.00 | 89 | 1014.7 |
| 20260902054415 | 24 | 236 | 3.2 | 0.0 | 0.00 | 0.00 | 0.00 | 89 | 1014.8 |
| 20260902054214 | 24 | 236 | 3.2 | 0.0 | 0.00 | 0.00 | 0.00 | 89 | 1014.8 |
| 20260902053713 | 24 | 236 | 3.2 | 0.0 | 0.00 | 0.00 | 0.00 | 90 | 1014.8 |
| 20260902053304 | 24 | 239 | 4.8 | 0.0 | 0.00 | 0.00 | 0.00 | 90 | 1014.8 |
| 20260902053213 | 24 | 239 | 4.8 | 0.0 | 0.00 | 0.00 | 0.00 | 90 | 1014.8 |
| 20260902052712 | 24 | 225 | 3.2 | 0.0 | 0.00 | 0.00 | 0.00 | 91 | 1014.7 |
| 20260902052212 | 24 | 204 | 3.2 | 0.0 | 0.00 | 0.00 | 0.00 | 91 | 1014.8 |
| 20260902051712 | 24 | 203 | 3.2 | 0.0 | 0.00 | 0.00 | 0.00 | 92 | 1014.8 |
| 20260902051211 | 24 | 204 | 1.6 | 0.0 | 0.00 | 0.00 | 0.00 | 91 | 1014.7 |
| 20260902050711 | 24 | 204 | 4.8 | 0.0 | 0.00 | 0.00 | 0.00 | 92 | 1014.7 |
| 20260902050211 | 24 | 204 | 4.8 | 0.0 | 0.00 | 0.00 | 0.00 | 91 | 1014.7 |
| 20260902045711 | 24 | 204 | 4.8 | 0.0 | 0.00 | 0.00 | 0.00 | 91 | 1014.8 |
| 20260902045210 | 24 | 218 | 4.8 | 0.0 | 0.00 | 0.00 | 0.00 | 91 | 1014.7 |
| 20260902044710 | 24 | 218 | 3.2 | 0.0 | 0.00 | 0.00 | 0.00 | 91 | 1014.7 |
| 20260902044210 | 24 | 218 | 3.2 | 0.0 | 0.00 | 0.00 | 0.00 | 91 | 1014.8 |
| 20260902043710 | 24 | 218 | 4.8 | 0.0 | 0.00 | 0.00 | 0.00 | 91 | 1014.7 |
| 20260902043209 | 24 | 209 | 3.2 | 0.0 | 0.00 | 0.00 | 0.00 | 91 | 1014.7 |
| 20260902042709 | 24 | 209 | 4.8 | 0.0 | 0.00 | 0.00 | 0.00 | 91 | 1014.7 |
| 20260902042209 | 24 | 209 | 3.2 | 0.0 | 0.00 | 0.00 | 0.00 | 91 | 1014.7 |
| 20260902041708 | 24 | 209 | 4.8 | 0.0 | 0.00 | 0.00 | 0.00 | 92 | 1014.7 |
| 20260902041208 | 25 | 214 | 6.4 | 0.0 | 0.00 | 0.00 | 0.00 | 92 | 1014.8 |
| 20260902040708 | 25 | 207 | 3.2 | 0.0 | 0.00 | 0.00 | 0.00 | 92 | 1014.8 |
| 20260902040208 | 25 | 207 | 6.4 | 0.0 | 0.00 | 0.00 | 0.00 | 92 | 1014.7 |
| 20260902035707 | 25 | 209 | 3.2 | 0.0 | 0.00 | 0.00 | 0.00 | 92 | 1014.7 |
| 20260902035207 | 25 | 209 | 6.4 | 0.0 | 0.00 | 0.00 | 0.00 | 92 | 1014.7 |
| 20260902034707 | 25 | 209 | 4.8 | 0.0 | 0.00 | 0.00 | 0.00 | 92 | 1014.8 |
| 20260902034206 | 25 | 209 | 4.8 | 0.0 | 0.00 | 0.00 | 0.00 | 92 | 1014.7 |
| 20260902033706 | 25 | 209 | 6.4 | 0.0 | 0.00 | 0.00 | 0.00 | 92 | 1014.8 |
| 20260902033206 | 25 | 209 | 4.8 | 0.0 | 0.00 | 0.00 | 0.00 | 92 | 1014.8 |
| 20260902032706 | 25 | 209 | 3.2 | 0.0 | 0.00 | 0.00 | 0.00 | 93 | 1014.8 |
| 20260902032205 | 25 | 209 | 3.2 | 0.0 | 0.00 | 0.00 | 0.00 | 93 | 1014.8 |
| 20260902031547 | 25 | 209 | 1.6 | 0.0 | 0.00 | 0.00 | 0.00 | 93 | 1014.9 |
| 20260902031418 | 25 | 209 | 1.6 | 0.0 | 0.00 | 0.00 | 0.00 | 93 | 1014.9 |
| 20260902031205 | 25 | 209 | 1.6 | 0.0 | 0.00 | 0.00 | 0.00 | 93 | 1014.9 |
| 20260902030704 | 25 | 209 | 3.2 | 0.0 | 0.00 | 0.00 | 0.00 | 93 | 1014.9 |
| 20260902030204 | 25 | 209 | 4.8 | 0.0 | 0.00 | 0.00 | 0.00 | 93 | 1014.8 |
| 20260902025851 | 25 | 209 | 4.8 | 0.0 | 0.00 | 0.00 | 0.00 | 93 | 1014.8 |
| 20260902025704 | 25 | 209 | 4.8 | 0.0 | 0.00 | 0.00 | 0.00 | 93 | 1014.8 |
| 20260902025204 | 25 | 209 | 3.2 | 0.0 | 0.00 | 0.00 | 0.00 | 93 | 1014.8 |
| 20260902024703 | 25 | 209 | 3.2 | 0.0 | 0.00 | 0.00 | 0.00 | 93 | 1014.7 |
| 20260902024203 | 25 | 209 | 1.6 | 0.0 | 0.00 | 0.00 | 0.00 | 93 | 1014.7 |
| 20260902023703 | 25 | 209 | 1.6 | 0.0 | 0.00 | 0.00 | 0.00 | 93 | 1014.7 |
| 20260902023202 | 25 | 209 | 1.6 | 0.0 | 0.00 | 0.00 | 0.00 | 92 | 1014.7 |
| 20260902022905 | 25 | 209 | 1.6 | 0.0 | 0.00 | 0.00 | 0.00 | 92 | 1014.7 |
| 20260902022702 | 25 | 209 | 1.6 | 0.0 | 0.00 | 0.00 | 0.00 | 92 | 1014.7 |
| 20260902021201 | 25 | 209 | 1.6 | 0.0 | 0.00 | 0.00 | 0.00 | 92 | 1014.6 |
| 20260902020702 | 25 | 209 | 1.6 | 0.0 | 0.00 | 0.00 | 0.00 | 92 | 1014.6 |
| 20260902020201 | 25 | 209 | 1.6 | 0.0 | 0.00 | 0.00 | 0.00 | 92 | 1014.5 |
| 20260902020038 | 25 | 209 | 1.6 | 0.0 | 0.00 | 0.00 | 0.00 | 92 | 1014.5 |
| 20260902015700 | 25 | 209 | 1.6 | 0.0 | 0.00 | 0.00 | 0.00 | 92 | 1014.5 |
| 20260902015434 | 25 | 209 | 0.0 | 0.0 | 0.00 | 0.00 | 0.00 | 92 | 1014.5 |
| 20260902015200 | 25 | 209 | 0.0 | 0.0 | 0.00 | 0.00 | 0.00 | 92 | 1014.5 |
| 20260902015015 | 26 | 209 | 3.2 | 0.0 | 0.00 | 0.00 | 0.00 | 91 | 1014.4 |
| 20260902014618 | 26 | 209 | 1.6 | 0.0 | 0.00 | 0.00 | 0.00 | 91 | 1014.4 |
| 20260902014256 | 26 | 209 | 1.6 | 0.0 | 0.00 | 0.00 | 0.00 | 91 | 1014.4 |
| 20260902014203 | 26 | 209 | 3.2 | 0.0 | 0.00 | 0.00 | 0.00 | 91 | 1014.4 |
| 20260902014200 | 26 | 209 | 1.6 | 0.0 | 0.00 | 0.00 | 0.00 | 91 | 1014.4 |
| 20260902014026 | 26 | 209 | 3.2 | 0.0 | 0.00 | 0.00 | 0.00 | 91 | 1014.4 |
| 20260902013659 | 26 | 209 | 3.2 | 0.0 | 0.00 | 0.00 | 0.00 | 91 | 1014.4 |
| 20260902013522 | 26 | 209 | 1.6 | 0.0 | 0.00 | 0.00 | 0.00 | 90 | 1014.4 |
| 20260902013352 | 26 | 209 | 1.6 | 0.0 | 0.00 | 0.00 | 0.00 | 90 | 1014.3 |
| 20260902013159 | 26 | 209 | 1.6 | 0.0 | 0.00 | 0.00 | 0.00 | 90 | 1014.4 |
| 20260902012936 | 26 | 209 | 1.6 | 0.0 | 0.00 | 0.00 | 0.00 | 90 | 1014.3 |
| 20260902012158 | 26 | 209 | 0.0 | 0.0 | 0.00 | 0.00 | 0.00 | 89 | 1014.2 |
| 20260902011753 | 26 | 209 | 0.0 | 0.0 | 0.00 | 0.00 | 0.00 | 89 | 1014.2 |
| 20260902011658 | 26 | 209 | 0.0 | 0.0 | 0.00 | 0.00 | 0.00 | 89 | 1014.2 |
| 20260902011536 | 27 | 209 | 0.0 | 0.0 | 0.00 | 0.00 | 0.00 | 89 | 1014.2 |
| 20260902011408 | 27 | 209 | 0.0 | 0.0 | 0.00 | 0.00 | 0.00 | 89 | 1014.2 |
| 20260902011158 | 27 | 209 | 0.0 | 0.0 | 0.00 | 0.00 | 0.00 | 89 | 1014.2 |
| 20260902010658 | 27 | 209 | 0.0 | 0.0 | 0.00 | 0.00 | 0.00 | 89 | 1014.1 |
| 20260902010453 | 27 | 209 | 1.6 | 0.0 | 0.00 | 0.00 | 0.00 | 89 | 1014.0 |
| 20260902010157 | 27 | 209 | 1.6 | 0.0 | 0.00 | 0.00 | 0.00 | 89 | 1014.1 |
| 20260902005657 | 27 | 209 | 1.6 | 0.0 | 0.00 | 0.00 | 0.00 | 89 | 1014.0 |
| 20260902005157 | 27 | 209 | 3.2 | 0.0 | 0.00 | 0.00 | 0.00 | 88 | 1014.0 |
| 20260902004657 | 27 | 209 | 1.6 | 0.0 | 0.00 | 0.00 | 0.00 | 87 | 1014.0 |
| 20260902004156 | 28 | 209 | 1.6 | 0.0 | 0.00 | 0.00 | 0.00 | 87 | 1014.1 |
| 20260902003657 | 28 | 209 | 3.2 | 0.0 | 0.00 | 0.00 | 0.00 | 86 | 1014.0 |
| 20260902003156 | 28 | 209 | 3.2 | 0.0 | 0.00 | 0.00 | 0.00 | 86 | 1014.0 |
| 20260902002655 | 28 | 209 | 3.2 | 0.0 | 0.00 | 0.00 | 0.00 | 85 | 1014.0 |
| 20260902002155 | 29 | 210 | 3.2 | 0.0 | 0.00 | 0.00 | 0.00 | 84 | 1014.0 |
| 20260902001657 | 29 | 209 | 3.2 | 0.0 | 0.00 | 0.00 | 0.00 | 83 | 1014.0 |
| 20260902001156 | 30 | 210 | 3.2 | 0.0 | 0.00 | 0.00 | 0.00 | 83 | 1014.0 |
| 20260902000655 | 30 | 209 | 3.2 | 0.0 | 0.00 | 0.00 | 0.00 | 82 | 1014.0 |
| 20260902000155 | 30 | 210 | 1.6 | 0.0 | 0.00 | 0.00 | 0.00 | 82 | 1014.0 |
| 20260901235655 | 30 | 210 | 1.6 | 0.0 | 0.00 | 0.00 | 0.00 | 81 | 1014.1 |
| 20260901235154 | 31 | 210 | 1.6 | 0.0 | 0.00 | 0.00 | 0.00 | 80 | 1014.1 |
| 20260901234654 | 31 | 210 | 4.8 | 0.0 | 0.00 | 0.00 | 0.00 | 78 | 1014.1 |
| 20260901234153 | 31 | 210 | 3.2 | 0.0 | 0.00 | 0.00 | 0.00 | 77 | 1014.1 |
| 20260901233153 | 32 | 209 | 3.2 | 0.0 | 0.00 | 0.00 | 0.00 | 76 | 1014.2 |
| 20260901232652 | 32 | 210 | 3.2 | 0.0 | 0.00 | 0.00 | 0.00 | 76 | 1014.2 |
| 20260901232152 | 32 | 242 | 4.8 | 0.0 | 0.00 | 0.00 | 0.00 | 75 | 1014.1 |
| 20260901231652 | 32 | 217 | 3.2 | 0.0 | 0.00 | 0.00 | 0.00 | 74 | 1014.1 |
| 20260901231152 | 32 | 226 | 3.2 | 0.0 | 0.00 | 0.00 | 0.00 | 75 | 1014.2 |
| 20260901230652 | 32 | 241 | 4.8 | 0.0 | 0.00 | 0.00 | 0.00 | 75 | 1014.1 |
| 20260901230152 | 32 | 235 | 4.8 | 0.0 | 0.00 | 0.00 | 0.00 | 72 | 1014.2 |
| 20260901225651 | 32 | 234 | 4.8 | 0.0 | 0.00 | 0.00 | 0.00 | 72 | 1014.2 |
| 20260901225151 | 33 | 248 | 4.8 | 0.0 | 0.00 | 0.00 | 0.00 | 71 | 1014.2 |
| 20260901224651 | 33 | 240 | 4.8 | 0.0 | 0.00 | 0.00 | 0.00 | 71 | 1014.2 |
| 20260901224151 | 33 | 267 | 6.4 | 0.0 | 0.00 | 0.00 | 0.00 | 70 | 1014.3 |
| 20260901222650 | 33 | 235 | 6.4 | 0.0 | 0.00 | 0.00 | 0.00 | 66 | 1014.3 |
| 20260901222149 | 33 | 234 | 6.4 | 0.0 | 0.00 | 0.00 | 0.00 | 69 | 1014.2 |
| 20260901221649 | 33 | 237 | 9.7 | 0.0 | 0.00 | 0.00 | 0.00 | 68 | 1014.2 |
| 20260901221149 | 33 | 254 | 6.4 | 0.0 | 0.00 | 0.00 | 0.00 | 66 | 1014.2 |
| 20260901220148 | 33 | 252 | 8.0 | 0.0 | 0.00 | 0.00 | 0.00 | 65 | 1014.2 |
| 20260901215648 | 33 | 261 | 9.7 | 0.0 | 0.00 | 0.00 | 0.00 | 64 | 1014.2 |
| 20260901215148 | 33 | 261 | 9.7 | 0.0 | 0.00 | 0.00 | 0.00 | 64 | 1014.2 |
| 20260901214647 | 33 | 248 | 8.0 | 0.0 | 0.00 | 0.00 | 0.00 | 64 | 1014.2 |
| 20260901214147 | 33 | 230 | 11.3 | 0.0 | 0.00 | 0.00 | 0.00 | 64 | 1014.1 |
| 20260901213647 | 33 | 252 | 11.3 | 0.0 | 0.00 | 0.00 | 0.00 | 62 | 1014.2 |
| 20260901213148 | 33 | 249 | 11.3 | 0.0 | 0.00 | 0.00 | 0.00 | 63 | 1014.2 |